Helicity
132 138 118 117 108 97 83 64 74 50 45 243 293 222 107 73 48 48 83 87 93 80 96 81 63 59 95 121 99 62 54 75 75 80 92 92 80 98 131 81 105 134 123 101 64 55 131
124 123 131 158 121 92 107 96 66 56 49 252 210 170 189 103 54 60 91 80 74 72 97 76 60 61 105 147 69 66 54 47 61 75 78 94 76 71 73 87 111 116 62 119 123 56 86
65 61 62 109 134 126 88 70 82 68 64 3 284 186 182 140 49 57 76 65 62 61 68 51 49 81 141 85 70 54 33 37 56 64 73 82 14 35 80 99 71 136 79 88 94 54 114
32 29 39 57 78 102 115 69 80 88 82 74 240 174 209 145 51 76 74 40 51 64 45 27 65 111 77 61 36 41 46 40 34 48 28 -27 47 -37 59 92 101 125 126 69 31 -12 6
58 46 16 11 10 36 92 90 141 106 96 113 176 215 239 213 42 87 54 23 45 60 51 48 96 94 24 9 53 30 39 -7 -19 -2 -34 -20 34 49 70 81 131 125 120 34 -6 7 -8
97 88 90 64 29 -2 -29 53 90 133 101 137 16 300 296 159 48 68 27 34 52 64 33 70 49 53 53 64 54 37 16 -5 -29 -35 -8 26 -5 15 75 77 142 120 98 32 -15 -9 -184
89 105 106 105 90 56 -3 -26 67 114 177 176 60 274 290 170 40 54 63 72 104 65 40 41 54 49 57 43 50 34 3 -29 -32 -12 10 -3 11 -23 31 16 114 161 110 23 20 -29 -143
77 71 71 85 84 79 61 -2 -15 42 168 191 136 234 223 62 24 58 84 78 58 29 8 27 36 48 50 70 60 33 -6 24 20 38 7 15 38 16 15 96 79 91 62 5 -27 -31 59
37 40 37 33 22 21 53 48 -26 14 72 125 113 247 226 126 64 89 53 49 31 7 11 24 69 66 69 84 134 101 37 55 61 41 37 -2 -9 -7 15 65 88 98 45 55 24 112 31
32 40 42 29 20 5 7 42 34 18 46 70 108 260 187 158 123 52 47 46 20 14 7 2 41 58 59 64 77 124 98 81 33 6 24 71 12 33 3 95 47 54 68 61 23 105 79
34 42 46 36 28 25 25 56 54 53 39 39 117 219 150 134 62 56 62 60 20 -14 57 0 35 42 83 77 56 92 65 65 65 75 80 9 -98 -48 45 64 20 67 60 106 89 23 -22
34 33 28 51 23 8 9 24 36 51 44 48 65 187 111 127 93 41 93 44 11 11 11 -23 20 19 50 120 119 75 97 77 72 61 47 67 21 63 144 95 41 119 183 212 165 108 -5
29 3 -6 -6 2 -12 -1 17 38 44 84 65 87 164 145 116 47 61 95 18 32 61 -35 -2 16 3 41 106 82 84 71 69 74 35 75 139 247 226 207 175 166 176 150 108 85 68 -76
-25 -7 3 9 24 14 -34 31 30 66 128 128 168 215 154 121 92 83 88 24 23 1 -25 -16 -13 -2 52 41 92 63 56 50 78 58 42 51 108 145 221 98 75 180 104 61 40 65 36
-32 -16 8 -12 17 12 8 -10 77 147 57 30 248 272 166 44 64 89 32 -11 19 -36 -36 -11 -19 19 26 42 43 42 59 53 73 63 31 41 40 97 89 92 63 146 160 86 89 104 105
-34 -6 -11 -21 -19 -8 65 362 394 262 8 272 362 262 132 93 46 102 -9 -14 -26 -65 -34 -22 -31 5 0 6 3 16 23 45 48 32 40 49 31 79 71 80 51 69 87 97 134 112 115
-27 -31 -28 4 -14 135 332 494 561 50 353 376 440 220 122 104 78 71 -13 -24 -28 -48 -12 -34 -14 -6 16 17 20 23 29 32 33 50 21 30 30 44 52 49 92 86 72 72 67 99 106
-23 -29 -15 -8 101 343 374 461 69 237 380 448 345 102 122 145 71 27 -15 -34 -50 -52 1 -28 -33 -9 14 24 4 27 18 18 23 43 37 36 40 37 45 56 65 56 43 59 53 70 42
-21 -8 5 25 161 388 286 132 184 273 338 386 287 222 151 126 50 22 18 -15 -35 -15 -33 -41 -46 -14 7 -10 0 10 15 9 21 8 42 40 25 36 30 36 34 19 40 31 42 57 51
-7 19 10 214 293 293 212 248 257 241 268 368 189 83 94 44 35 14 14 -15 -14 -34 -60 -26 -12 -16 -25 -25 -18 -1 5 3 6 3 -1 17 19 37 55 44 -7 -11 1 15 30 32 26
33 13 108 377 367 178 84 277 227 245 389 252 145 22 40 87 9 32 35 -16 8 -2 -39 -40 -32 -27 -28 -29 -24 -13 -5 -1 -8 -3 -14 -9 27 26 22 13 7 2 9 9 11 6 2
68 17 163 418 141 7 13 176 253 386 356 261 74 28 61 13 44 38 64 7 17 13 -16 -10 -22 -28 -39 -25 -11 1 0 4 7 -3 -13 -9 14 -5 -3 -8 -21 -7 -1 16 21 25 13
69 49 216 380 42 73 104 205 227 275 277 192 98 39 34 18 83 63 52 41 6 -48 -5 -27 -36 -35 -36 -26 -24 -18 -9 -13 2 11 10 4 11 -1 0 -13 -18 -15 -15 -27 -38 -14 38
73 78 157 260 19 39 133 235 257 270 247 169 89 31 21 47 83 61 38 67 -5 -2 -50 -13 -30 -38 -25 -26 -9 -14 -15 -18 -17 -4 -3 11 3 3 20 -8 13 14 -4 1 19 9 -26
99 79 58 96 -15 -18 41 10 150 179 177 122 126 52 19 103 72 86 56 69 127 110 38 -10 33 -2 -27 -26 -12 -12 -8 -16 -23 -27 -20 -8 6 11 18 22 18 45 28 25 17 40 19
53 36 67 -4 78 -37 9 -18 77 61 123 138 101 75 51 129 104 143 102 83 48 51 73 46 116 44 -30 -26 -29 -13 3 6 -1 -17 -20 -12 -16 -14 -8 -9 27 26 31 26 8 10 101
27 19 24 7 -78 16 17 -27 72 65 55 130 98 98 61 49 178 147 107 98 99 96 35 41 24 3 -2 -14 -25 -24 -11 -15 -4 -1 -9 -15 -24 24 15 -2 -20 -2 15 28 33 -3 39
60 -18 -87 -86 -84 0 20 16 57 19 32 17 52 72 43 67 187 145 154 128 125 95 15 4 22 32 -4 -1 -6 0 -10 -6 -12 -1 1 18 43 35 42 48 36 2 25 32 38 55 36
102 35 -26 -76 -96 -50 3 11 30 -19 5 -37 38 60 69 61 113 161 156 152 138 118 71 98 -26 14 21 22 16 4 9 -5 18 30 10 24 37 42 61 42 20 35 76 98 78 44 26
Wind_Speed
78 83 87 91 91 91 91 92 90 88 85 35 28 26 32 47 53 54 50 52 48 51 48 41 40 43 39 42 41 31 32 38 35 33 35 43 48 52 64 73 81 90 87 76 91 77 81
79 83 89 95 95 92 93 94 93 91 91 35 26 23 22 38 49 48 49 53 47 49 44 39 39 40 39 52 32 29 35 33 31 31 33 35 45 50 60 77 77 70 91 89 82 96 77
83 84 88 93 94 95 95 96 95 93 91 68 28 24 27 32 45 44 48 46 50 44 38 39 36 37 44 41 30 32 30 30 28 26 30 15 17 34 46 58 78 77 74 92 95 88 84
85 88 89 91 95 95 95 95 94 93 93 89 30 30 24 33 38 41 46 45 43 40 37 34 34 39 43 26 24 25 25 27 20 24 17 28 15 25 45 53 58 82 76 88 93 76 78
90 90 91 93 95 97 96 95 95 93 93 88 36 27 20 30 27 34 41 38 38 37 38 34 36 38 40 28 27 16 15 11 22 13 25 20 28 26 34 47 67 74 90 93 86 88 68
93 95 97 99 101 100 99 98 95 93 89 88 45 23 27 28 28 31 34 36 36 39 36 36 36 40 33 37 25 20 18 29 30 26 30 25 19 16 43 57 83 81 92 90 95 80 81
91 92 94 99 102 102 100 97 94 92 91 81 68 27 27 26 26 29 29 32 35 37 34 35 37 38 33 27 20 25 23 21 26 34 31 34 34 52 65 64 72 64 82 79 82 67 72
87 90 94 98 101 103 102 99 94 91 92 84 75 28 22 21 23 26 24 30 29 33 33 30 31 28 21 29 28 24 19 24 27 28 30 31 37 47 44 58 70 75 78 75 61 56 53
86 88 92 97 100 103 104 100 95 92 85 78 70 26 16 18 18 26 23 24 27 29 33 34 32 29 30 29 30 27 27 25 28 27 31 32 27 41 49 59 63 73 75 74 70 55 40
86 86 91 99 104 105 104 102 98 90 84 78 69 26 19 15 29 26 20 19 26 30 31 34 35 29 29 28 29 30 30 30 28 32 29 29 37 49 44 52 56 71 69 62 53 46 37
83 85 87 107 106 94 99 98 94 90 83 78 71 33 13 10 29 16 20 22 28 31 43 33 35 29 25 34 27 26 31 32 29 29 32 47 54 41 37 48 52 51 50 56 52 52 43
78 79 79 84 37 40 93 90 90 85 82 75 67 30 18 26 26 23 20 28 32 31 40 37 35 37 30 37 35 30 34 34 31 35 37 40 47 49 34 29 28 23 32 36 42 51 56
79 61 66 75 70 81 79 81 84 82 79 72 49 35 26 27 35 12 22 35 34 34 39 42 44 36 35 37 37 36 25 28 32 36 20 24 15 26 14 15 19 26 42 57 60 57 53
86 70 57 55 43 36 74 78 78 83 79 71 48 22 41 33 3 12 24 41 33 38 45 44 46 42 43 38 38 39 44 39 27 31 37 10 34 14 16 20 27 29 41 51 59 61 51
83 72 54 60 34 53 75 78 81 82 82 70 40 48 41 39 3 6 52 42 34 47 48 52 47 45 43 38 36 37 38 36 31 29 39 38 38 28 27 19 21 29 30 31 34 32 36
84 62 63 57 61 65 70 72 73 75 80 48 50 42 46 27 27 43 51 42 41 49 53 49 47 42 45 39 35 30 28 27 27 27 36 43 36 22 28 26 17 20 23 34 33 40 40
77 67 66 50 71 67 66 66 69 67 47 43 41 51 47 32 39 52 54 46 47 53 51 47 44 46 41 39 38 36 33 31 25 24 34 38 39 38 25 22 20 22 25 24 23 27 34
67 64 70 55 66 66 62 54 61 57 52 42 53 55 47 41 56 54 54 49 51 58 48 43 44 45 42 39 35 36 35 32 22 23 33 29 37 44 24 24 27 24 25 26 33 35 32
56 58 61 65 64 60 53 49 51 57 47 40 47 41 40 47 57 60 53 52 52 57 51 47 45 41 41 39 37 34 33 30 22 25 32 33 40 46 39 22 27 25 28 26 25 32 42
45 55 61 63 59 52 49 67 54 47 40 44 47 52 52 57 47 57 59 58 57 53 52 46 45 45 43 38 34 38 36 31 30 33 31 36 37 38 42 40 27 29 28 30 34 43 44
36 44 51 48 49 36 46 55 52 37 35 40 45 53 54 64 69 58 57 60 63 57 48 48 47 43 44 40 39 39 36 34 31 28 31 34 38 37 38 37 20 25 28 30 35 37 44
26 40 40 38 16 30 42 47 42 28 32 36 46 48 47 47 64 63 56 63 66 57 54 52 47 46 41 41 37 40 40 37 35 32 35 32 39 38 36 30 29 29 28 22 27 36 46
31 33 33 30 24 22 34 37 34 28 28 37 36 36 38 48 58 62 64 66 66 59 47 48 50 48 45 41 45 45 40 42 40 39 38 37 39 38 36 29 29 30 30 26 24 18 36
27 31 34 30 23 14 35 35 23 23 23 33 33 35 38 50 60 61 59 58 66 54 53 49 48 46 45 49 48 44 46 47 44 40 37 39 38 36 35 31 36 32 23 27 26 20 19
29 31 29 23 3 11 36 43 24 25 16 23 26 32 36 44 55 48 53 54 36 31 48 52 42 44 48 42 39 36 32 33 32 35 35 36 36 36 34 33 26 32 30 27 25 23 22
31 31 31 27 27 30 43 65 36 37 19 23 18 26 29 34 49 41 43 54 63 55 47 46 34 44 41 38 35 34 33 32 31 31 32 34 35 33 31 30 31 29 29 26 25 17 30
39 38 33 32 23 35 50 63 47 38 32 23 22 23 25 29 36 36 40 52 33 37 50 50 48 45 37 36 32 30 29 30 29 29 29 29 27 26 26 25 21 21 21 23 22 21 27
43 43 39 33 26 34 44 60 47 37 37 30 26 23 27 27 28 31 32 34 32 34 53 40 31 37 37 33 29 27 26 26 25 26 25 25 26 24 25 22 20 24 24 21 21 27 31
45 47 41 35 37 36 46 42 38 43 40 37 34 26 18 20 28 24 16 18 27 30 19 11 38 33 30 28 26 26 23 24 22 20 21 20 20 22 20 20 22 27 27 28 32 33 40
Wind_Direction
334 329 325 319 317 316 314 311 314 314 314 313 311 323 333 332 335 339 345 346 347 343 347 351 353 353 354 344 336 349 348 345 344 337 324 313 299 285 267 254 248 244 242 245 236 240 240
336 332 325 318 314 315 312 309 307 309 309 311 310 319 330 335 336 343 346 345 347 346 350 357 356 359 354 337 356 358 352 351 349 343 332 323 306 286 271 249 242 246 240 236 235 230 236
332 331 327 321 318 314 311 308 304 303 308 317 299 319 327 338 333 343 345 348 343 350 355 357 3 3 351 342 6 0 359 360 4 359 344 6 182 286 265 251 238 240 237 232 231 229 230
330 327 324 321 318 317 314 308 306 303 302 312 299 317 320 333 337 344 346 347 352 360 2 4 10 6 354 28 38 21 10 6 35 17 40 210 42 162 261 247 238 228 231 222 222 226 230
326 324 322 319 316 313 314 309 305 302 301 297 297 302 318 333 344 353 353 353 1 13 14 21 16 14 9 47 36 76 79 93 181 131 186 144 343 307 260 237 225 221 216 214 213 219 221
323 322 319 316 313 310 308 308 303 301 298 296 299 294 318 331 342 354 358 0 10 16 26 31 32 23 31 26 60 74 132 193 212 203 214 169 114 320 246 226 211 211 210 213 208 214 217
325 323 320 316 312 308 304 303 301 297 298 292 291 291 322 335 343 351 2 4 14 19 26 36 38 36 48 65 77 79 106 174 196 212 210 212 202 225 215 218 216 218 208 210 210 217 215
327 323 320 316 313 307 302 298 297 294 292 286 284 275 316 321 350 352 360 359 22 34 45 51 59 65 87 76 76 106 138 156 159 165 200 177 184 180 223 216 213 206 201 202 204 213 228
328 324 321 315 311 307 300 295 293 287 286 283 283 265 307 331 1 344 349 10 37 52 55 55 75 86 83 97 92 125 128 160 163 158 153 140 194 147 217 205 201 199 199 199 203 211 245
328 325 321 315 309 303 296 291 285 281 279 278 278 258 288 341 327 336 357 35 54 61 63 67 74 88 91 114 114 120 117 139 161 148 144 128 143 173 181 196 198 197 204 203 199 216 234
330 326 322 316 304 313 295 284 276 274 269 270 269 251 256 327 322 355 12 65 68 70 38 96 88 113 125 110 121 135 130 144 146 136 129 115 119 177 195 195 201 201 206 204 210 225 232
331 329 326 322 289 319 287 276 268 263 262 263 253 240 250 294 312 331 61 75 73 97 62 100 107 105 113 113 117 129 128 147 137 134 111 117 147 146 191 199 207 186 189 204 223 229 230
333 291 280 280 271 281 295 277 260 256 255 252 239 234 252 278 269 62 76 109 121 97 123 112 106 120 116 118 121 124 140 140 138 136 138 126 37 159 193 177 203 201 209 211 220 229 234
291 283 277 276 268 262 269 267 255 253 245 253 225 223 245 268 328 84 89 156 123 120 124 125 118 117 115 126 123 121 120 125 132 131 129 186 140 194 208 217 217 222 225 224 219 225 237
290 283 276 274 279 263 271 266 253 246 239 236 207 226 233 246 153 286 175 155 141 135 133 127 127 119 119 130 136 127 122 123 119 121 127 135 144 177 184 209 227 225 217 236 224 237 246
291 281 279 274 276 276 272 261 247 237 224 180 207 218 223 235 245 214 178 163 148 144 135 136 123 132 126 127 133 140 137 133 135 127 130 127 149 191 193 201 240 236 252 228 234 229 238
294 286 284 277 285 279 270 259 241 214 166 182 199 206 215 229 223 195 177 167 155 148 143 136 130 131 135 129 125 126 129 135 143 134 132 131 135 164 222 231 238 239 243 257 258 258 254
287 287 293 282 283 278 268 251 199 158 172 192 201 199 215 216 193 193 180 171 162 150 154 144 139 133 133 136 131 128 128 142 148 145 125 144 152 136 196 229 225 261 258 264 251 254 269
286 288 288 290 285 271 252 209 157 160 187 202 200 206 218 215 194 183 183 173 165 155 152 146 142 143 143 132 129 134 136 143 168 149 133 137 133 126 142 219 248 269 276 279 282 282 269
284 296 298 291 287 272 229 147 156 156 203 207 205 199 204 208 209 192 178 172 165 165 155 153 149 143 137 132 137 132 134 140 140 134 138 130 132 132 128 141 239 235 285 287 283 273 274
287 301 302 297 294 225 166 144 153 185 209 217 214 205 206 198 196 194 186 172 160 161 163 157 152 147 137 130 128 129 133 138 140 145 140 136 129 134 136 142 276 321 317 303 291 293 286
291 310 307 315 298 145 167 141 154 187 215 215 210 204 211 207 195 190 191 173 160 166 160 157 152 146 144 132 132 130 129 131 128 137 135 136 126 132 129 144 151 147 152 26 337 310 297
304 314 317 321 198 177 171 147 182 205 227 217 223 220 211 203 199 193 185 172 162 154 175 167 147 142 136 134 124 124 129 123 126 125 123 124 123 119 116 129 129 122 126 145 149 139 325
310 321 326 311 195 193 198 169 203 213 242 225 225 221 217 205 198 195 193 186 152 176 157 166 159 146 140 128 121 120 105 101 105 112 117 117 114 114 111 114 100 115 134 121 115 124 136
310 315 321 353 280 210 198 195 209 225 246 225 241 230 222 207 201 206 198 195 210 218 179 161 182 158 126 134 132 128 131 126 121 110 108 109 113 106 102 101 110 102 102 98 89 83 74
302 305 309 309 278 219 205 201 218 218 239 238 266 243 229 203 209 215 210 197 171 184 191 184 216 177 141 142 137 126 122 124 122 117 106 98 96 99 96 89 87 99 88 85 77 69 48
300 299 293 291 248 218 207 204 216 223 232 248 256 268 239 224 222 224 219 203 231 222 186 177 159 161 172 146 138 130 125 123 115 110 109 107 101 99 91 85 93 93 80 73 56 56 29
296 292 280 268 233 218 211 202 219 225 230 241 250 280 246 238 232 238 236 233 238 238 163 142 129 178 147 139 132 128 123 128 116 114 109 102 92 87 87 82 72 72 64 56 48 21 4
298 294 267 243 226 220 213 221 229 228 232 237 243 261 274 255 234 243 268 276 261 259 286 300 150 128 125 118 122 105 109 112 111 95 101 95 95 81 90 72 66 49 44 32 14 1 355